Voltar ao catálogo

STARLINK-34726

AtivoComunicaçõesSSO
NORAD 64935·PAYLOAD·🇺🇸 United States

Lançado Jul 26, 2025 de Vandenberg Space Force Base

Loading…

Próximas Passagens (próximas 24 horas)

TLE

AtualizadoSource: CelesTrak SupGP

Época: Sep 14, 2026, 22:47 UTC

1 64935C 25158D   26257.94979167  .00081838  00000+0  25422-2 0  2573
2 64935  97.2840 116.3462 0001928 100.2651 351.7041 15.33375284    10

Acompanhe STARLINK-34726 em tempo real com AllMySat

Download on the App Store